सभी
Kalmar Airport (Kalmar) KLR मौसम
|
Kalmar (KLR / ESMQ)
स्वच्छ आकाश
तेज हवाएं |
|
23 °C |
KLR Terminal Area Forecast
| Date | Time (CEST) | Flight Rules | Wind Dir. | Speed | Type | Height AGL (ft) | Visibility | Remarks | ||||||
|---|---|---|---|---|---|---|---|---|---|---|---|---|---|---|
Recent KLR METAR history
| Date | Time (CEST) | Flight Rules | Wind Dir. | Speed | Type | Height AGL (ft) | Visibility | Temp (°C) | Temp (°F) | Dew Point (°C) | Dew Point (°F) | Rel. Humid. | Pressure | Density Altitude | Remarks |
|---|---|---|---|---|---|---|---|---|---|---|---|---|---|---|---|
| 02-मई | 15:50 | VFR | 210° | 14 kt | 10000 meters | 23° | 73° | 6° | 42° | 33% | 1014 mb | 954 ft | |||
| 02-मई | 15:20 | VFR | 170° | 14 kt | 10000 meters | 24° | 75° | 5° | 41° | 29% | 1015 mb | 1,044 ft | |||
| 02-मई | 14:50 | VFR | 220° | 15 kt | 10000 meters | 23° | 73° | 4° | 39° | 29% | 1015 mb | 924 ft | |||
| 02-मई | 14:20 | VFR | 180° | 14 kt | 10000 meters | 24° | 75° | 4° | 39° | 27% | 1016 mb | 1,015 ft | |||
| 02-मई | 13:50 | VFR | 180° | 14 kt | 10000 meters | 24° | 75° | 4° | 39° | 27% | 1016 mb | 1,015 ft | |||
| 02-मई | 13:20 | VFR | 170° | 13 kt | 10000 meters | 22° | 71° | 6° | 42° | 35% | 1016 mb | 775 ft | |||
| 02-मई | 12:50 | VFR | 170° | 12 kt | 10000 meters | 23° | 73° | 3° | 37° | 27% | 1017 mb | 865 ft | |||
| 02-मई | 12:20 | VFR | 210° | 13 kt | 10000 meters | 23° | 73° | 5° | 41° | 31% | 1017 mb | 865 ft | |||
| 02-मई | 11:50 | VFR | 170° | 12 kt | 10000 meters | 23° | 73° | 5° | 41° | 31% | 1018 mb | 835 ft | |||
| 02-मई | 11:20 | VFR | 170° | 11 kt | 10000 meters | 22° | 71° | 4° | 39° | 31% | 1018 mb | 715 ft | |||
| 02-मई | 10:50 | VFR | 170° | 10 kt | 10000 meters | 17° | 62° | 9° | 48° | 59% | 1018 mb | 115 ft | |||
| 02-मई | 10:20 | VFR | 160° | 10 kt | 10000 meters | 17° | 62° | 9° | 48° | 59% | 1019 mb | 86 ft | |||
| 02-मई | 09:50 | VFR | 170° | 10 kt | 10000 meters | 17° | 62° | 8° | 46° | 55% | 1019 mb | 86 ft | |||
| 02-मई | 09:20 | VFR | 220° | 8 kt | 10000 meters | 19° | 66° | 6° | 42° | 43% | 1020 mb | 296 ft | |||
| 02-मई | 08:50 | VFR | 210° | 7 kt | 10000 meters | 18° | 64° | 5° | 41° | 42% | 1020 mb | 176 ft | |||
| 02-मई | 08:20 | VFR | 240° | 6 kt | 10000 meters | 17° | 62° | 5° | 41° | 45% | 1020 mb | 56 ft | |||
| 02-मई | 07:50 | VFR | 240° | 4 kt | 10000 meters | 15° | 59° | 5° | 41° | 51% | 1020 mb | -184 ft | |||
| 02-मई | 07:20 | VFR | 240° | 5 kt | 10000 meters | 13° | 55° | 5° | 41° | 58% | 1020 mb | -424 ft | |||
| 02-मई | 06:50 | VFR | 230° | 3 kt | 10000 meters | 12° | 53° | 4° | 39° | 58% | 1020 mb | -544 ft | |||
| 02-मई | 06:20 | VFR | 250° | 4 kt | 10000 meters | 11° | 51° | 3° | 37° | 58% | 1020 mb | -664 ft | |||
| 02-मई | 05:50 | VFR | 250° | 5 kt | 10000 meters | 11° | 51° | 3° | 37° | 58% | 1020 mb | -664 ft | |||
| 02-मई | 05:20 | VFR | 250° | 6 kt | 10000 meters | 11° | 51° | 3° | 37° | 58% | 1020 mb | -664 ft | |||
| 02-मई | 04:50 | VFR | 240° | 6 kt | 10000 meters | 11° | 51° | 3° | 37° | 58% | 1021 mb | -693 ft | |||
| 02-मई | 04:20 | VFR | 240° | 4 kt | 10000 meters | 10° | 50° | 3° | 37° | 62% | 1021 mb | -813 ft |
लॉगिन
| Your browser is unsupported. अपना ब्राऊजर अपग्रेड करें |
